User: anonymous   Login
Location: Pian di Sc�
(43.6333°N, 11.5500°E)
Time: 09:24:12
(UTC+00:00)
Language:

Cosmos 1092 Rocket - Orbit

View from above orbital plane
View from above orbital plane
View from above satellite
View from above satellite

Ground track
Ground track

The orbit data is extracted from the following two-line orbital elements,

1 11327U 79030B   20293.76253978 -.00000083 +00000-0 -99838-4 0  9990
2 11327 082.9459 109.6167 0027828 005.4605 005.3963 13.76950615087116
Epoch (UTC): 19 October 2020 18:18:03
Eccentricity: 0.0027828
inclination: 82.9459°
perigee height: 954 km
apogee height: 995 km
right ascension of ascending node: 109.6167°
argument of perigee: 5.4605°
revolutions per day: 13.76950615
mean anomaly at epoch: 5.3963°
orbit number at epoch: 8711

The dashed part of the orbit path shows where the satellite is in the earth's shadow,  

DLR